GW4136 Weather Reports


Display with metric or nautical units.
time (UTC)temp
F
wind
direction
speed
MPH
gust
MPH
rain 1hr
in
rain 24hr
in
rain mn
in
humidity
%
barometer
mb
20260510213604 46 224 0.0 0.0 0.00 0.00 0.00 73 1017.1
20260510213105 46 210 0.0 0.0 0.00 0.00 0.00 73 1017.1
20260510212105 45 210 0.0 0.0 0.00 0.00 0.00 74 1017.1
20260510211605 46 210 0.0 0.0 0.00 0.00 0.00 73 1017.2
20260510211104 46 210 0.0 0.0 0.00 0.00 0.00 73 1017.2
20260510210605 46 339 0.0 0.0 0.00 0.00 0.00 70 1017.0
20260510210104 46 339 0.0 0.0 0.00 0.00 0.00 68 1016.9
20260510205104 47 339 0.0 0.0 0.00 0.00 0.00 67 1017.0
20260510204604 47 339 0.0 0.0 0.00 0.00 0.00 67 1016.9
20260510204104 47 339 0.0 0.0 0.00 0.00 0.00 66 1016.9
20260510203605 48 339 0.0 0.0 0.00 0.00 0.00 66 1016.9
20260510203104 48 339 0.0 0.0 0.00 0.00 0.00 65 1016.9
20260510202105 49 339 0.0 0.0 0.00 0.00 0.00 63 1017.0
20260510201605 49 339 0.0 0.0 0.00 0.00 0.00 63 1017.0
20260510200604 49 342 0.0 0.0 0.00 0.00 0.00 62 1017.1
20260510200104 50 343 0.0 0.0 0.00 0.00 0.00 62 1017.1
20260510195604 50 343 0.0 0.0 0.00 0.00 0.00 61 1017.0
20260510195104 50 343 0.0 0.0 0.00 0.00 0.00 60 1017.0
20260510194604 50 250 0.0 1.0 0.00 0.00 0.00 60 1017.1
20260510193603 51 240 0.0 0.0 0.00 0.00 0.00 59 1017.2
20260510193104 52 231 0.0 1.0 0.00 0.00 0.00 58 1017.1
20260510192604 52 224 0.0 1.0 0.00 0.00 0.00 57 1017.3
20260510191604 53 251 0.0 6.0 0.00 0.00 0.00 55 1017.3
20260510191104 53 201 0.0 3.0 0.00 0.00 0.00 56 1017.3
20260510190104 53 209 0.0 2.0 0.00 0.00 0.00 55 1017.3
20260510185105 53 243 1.0 3.0 0.00 0.00 0.00 55 1017.3
20260510184604 53 284 1.0 3.0 0.00 0.00 0.00 54 1017.3
20260510184104 54 271 1.0 3.0 0.00 0.00 0.00 55 1017.4
20260510183604 54 238 0.0 3.0 0.00 0.00 0.00 56 1017.4
20260510183104 54 248 0.0 3.0 0.00 0.00 0.00 56 1017.5
20260510182604 54 65 1.0 3.0 0.00 0.00 0.00 55 1017.4
20260510182104 54 310 1.0 3.0 0.00 0.00 0.00 55 1017.5
20260510181605 54 290 1.0 5.0 0.00 0.00 0.00 55 1017.5
20260510180604 54 264 1.0 6.0 0.00 0.00 0.00 55 1017.4
20260510180105 54 271 1.0 7.0 0.00 0.00 0.00 54 1017.5
20260510175605 54 305 1.0 2.0 0.00 0.00 0.00 54 1017.5
20260510175104 54 288 1.0 3.0 0.00 0.00 0.00 53 1017.5
20260510174604 54 282 0.0 3.0 0.00 0.00 0.00 55 1017.5
20260510174104 54 252 1.0 3.0 0.00 0.00 0.00 55 1017.5
20260510173605 54 286 1.0 3.0 0.00 0.00 0.00 55 1017.5
20260510173105 54 270 0.0 3.0 0.00 0.00 0.00 54 1017.6
20260510172605 54 234 0.0 3.0 0.00 0.00 0.00 55 1017.6
20260510172105 54 274 0.0 1.0 0.00 0.00 0.00 55 1017.6
20260510171105 54 275 1.0 5.0 0.00 0.00 0.00 54 1017.7
20260510170603 55 270 1.0 5.0 0.00 0.00 0.00 55 1017.9
20260510165602 54 277 0.0 3.0 0.00 0.00 0.00 55 1018.0
20260510165104 54 233 1.0 3.0 0.00 0.00 0.00 54 1018.0
20260510163604 55 231 1.0 3.0 0.00 0.00 0.00 54 1018.1
20260510163104 55 266 1.0 7.0 0.00 0.00 0.00 55 1018.2
20260510162605 55 262 1.0 3.0 0.00 0.00 0.00 53 1018.2
20260510162104 55 241 2.0 6.0 0.00 0.00 0.00 52 1018.3
20260510161604 56 270 1.0 5.0 0.00 0.00 0.00 54 1018.3
20260510161105 56 263 0.0 3.0 0.00 0.00 0.00 53 1018.4
20260510160605 56 217 2.0 7.0 0.00 0.00 0.00 51 1018.5
20260510160105 57 259 1.0 7.0 0.00 0.00 0.00 51 1018.5
20260510155605 57 280 1.0 7.0 0.00 0.00 0.00 54 1018.5
20260510154605 56 268 2.0 6.0 0.00 0.00 0.00 53 1018.6
20260510154105 57 258 2.0 7.0 0.00 0.00 0.00 53 1018.7
20260510153105 57 287 1.0 5.0 0.00 0.00 0.00 54 1018.6
20260510152604 57 248 2.0 10.0 0.00 0.00 0.00 55 1018.7
20260510152104 57 187 1.0 5.0 0.00 0.00 0.00 54 1018.7
20260510151602 57 297 2.0 6.0 0.00 0.00 0.00 54 1018.7
20260510151104 57 264 2.0 6.0 0.00 0.00 0.00 52 1018.8
20260510150604 58 240 1.0 7.0 0.00 0.00 0.00 52 1018.8
20260510150105 58 289 2.0 7.0 0.00 0.00 0.00 53 1018.8
20260510145605 57 261 0.0 3.0 0.00 0.00 0.00 52 1018.9
20260510144604 58 309 2.0 8.0 0.00 0.00 0.00 53 1019.1
20260510144105 58 260 1.0 6.0 0.00 0.00 0.00 54 1019.1
20260510143605 57 256 0.0 5.0 0.00 0.00 0.00 53 1019.1
20260510143105 58 165 1.0 7.0 0.00 0.00 0.00 52 1019.2
20260510142605 59 262 2.0 7.0 0.00 0.00 0.00 52 1019.3
20260510141606 58 236 1.0 3.0 0.00 0.00 0.00 53 1019.4
20260510141105 58 237 1.0 6.0 0.00 0.00 0.00 53 1019.6
20260510140603 58 280 1.0 5.0 0.00 0.00 0.00 53 1019.5
20260510140104 58 217 2.0 6.0 0.00 0.00 0.00 53 1019.5
20260510135607 58 297 2.0 7.0 0.00 0.00 0.00 52 1019.6
20260510135104 58 341 3.0 8.0 0.00 0.00 0.00 55 1019.5
20260510134604 57 250 1.0 9.0 0.00 0.00 0.00 55 1019.6
20260510134105 57 271 1.0 5.0 0.00 0.00 0.00 55 1019.7
20260510133605 56 237 1.0 3.0 0.00 0.00 0.00 54 1019.8
20260510133104 57 283 2.0 7.0 0.00 0.00 0.00 55 1019.9
20260510132605 57 267 2.0 6.0 0.00 0.00 0.00 56 1019.9
20260510131605 56 273 1.0 7.0 0.00 0.00 0.00 57 1020.0
20260510131105 56 284 1.0 7.0 0.00 0.00 0.00 58 1020.1
20260510130105 56 272 1.0 7.0 0.00 0.00 0.00 58 1020.1
20260510125605 57 305 2.0 10.0 0.00 0.00 0.00 56 1020.1
20260510125104 58 271 1.0 3.0 0.00 0.00 0.00 57 1020.1
20260510124605 58 323 2.0 7.0 0.00 0.00 0.00 55 1020.2
20260510124105 58 272 2.0 7.0 0.00 0.00 0.00 53 1020.3
20260510123605 59 267 2.0 6.0 0.00 0.00 0.00 58 1020.4
20260510123105 58 264 2.0 5.0 0.00 0.00 0.00 58 1020.4
20260510122603 57 292 1.0 9.0 0.00 0.00 0.00 57 1020.4
20260510122104 57 296 1.0 9.0 0.00 0.00 0.00 58 1020.4
20260510121603 58 238 2.0 6.0 0.00 0.00 0.00 55 1020.5
20260510121103 58 253 2.0 7.0 0.00 0.00 0.00 58 1020.6
20260510120603 57 286 1.0 3.0 0.00 0.00 0.00 61 1020.6
20260510120103 56 245 2.0 6.0 0.00 0.00 0.00 60 1020.7
20260510115603 56 238 1.0 5.0 0.00 0.00 0.00 60 1020.8
20260510115105 56 251 2.0 8.0 0.00 0.00 0.00 61 1020.8
20260510114605 55 321 2.0 8.0 0.00 0.00 0.00 62 1020.9
20260510114105 55 287 1.0 3.0 0.00 0.00 0.00 62 1020.9
20260510113605 55 249 2.0 7.0 0.00 0.00 0.00 63 1021.0
20260510113105 55 313 2.0 7.0 0.00 0.00 0.00 64 1021.1
20260510112605 55 253 2.0 10.0 0.00 0.00 0.00 62 1021.2
20260510112105 56 265 0.0 3.0 0.00 0.00 0.00 64 1021.2
20260510111610 55 270 2.0 7.0 0.00 0.00 0.00 64 1021.4
20260510111105 55 336 1.0 8.0 0.00 0.00 0.00 65 1021.4
20260510110605 54 326 1.0 7.0 0.00 0.00 0.00 68 1021.5
20260510110105 54 284 2.0 9.0 0.00 0.00 0.00 67 1021.6
20260510105105 52 249 1.0 7.0 0.00 0.00 0.00 70 1021.6
20260510104605 52 277 2.0 8.0 0.00 0.00 0.00 69 1021.6
20260510104107 52 274 3.0 8.0 0.00 0.00 0.00 70 1021.7
20260510103605 51 264 3.0 12.0 0.00 0.00 0.00 71 1021.7
20260510103105 52 258 2.0 6.0 0.00 0.00 0.00 71 1021.7
20260510102605 51 263 2.0 9.0 0.00 0.00 0.00 71 1021.8
20260510101605 51 277 3.0 8.0 0.00 0.00 0.00 70 1021.8
20260510101105 51 268 2.0 8.0 0.00 0.00 0.00 72 1021.8
20260510100605 51 290 2.0 7.0 0.00 0.00 0.00 71 1021.9
20260510100106 51 279 3.0 12.0 0.00 0.00 0.00 71 1021.9
20260510095605 50 275 2.0 13.0 0.00 0.00 0.00 73 1022.0
20260510095105 50 288 2.0 7.0 0.00 0.00 0.00 72 1022.0
20260510094607 50 288 3.0 10.0 0.00 0.00 0.00 72 1022.1
20260510094105 50 261 2.0 9.0 0.00 0.00 0.00 74 1022.1
20260510093604 50 272 2.0 7.0 0.00 0.00 0.00 74 1022.2
20260510093105 49 278 2.0 8.0 0.00 0.00 0.00 74 1022.2
20260510092605 49 280 3.0 8.0 0.00 0.00 0.00 74 1022.2
20260510092104 49 261 1.0 6.0 0.00 0.00 0.00 76 1022.3
20260510091106 49 286 2.0 5.0 0.00 0.00 0.00 77 1022.3
20260510090605 48 267 2.0 8.0 0.00 0.00 0.00 77 1022.4
20260510090105 49 242 2.0 8.0 0.00 0.00 0.00 77 1022.4
20260510085605 49 258 2.0 9.0 0.00 0.00 0.00 77 1022.4
20260510085105 49 285 1.0 5.0 0.00 0.00 0.00 77 1022.4
20260510084605 49 261 1.0 3.0 0.00 0.00 0.00 77 1022.4
20260510084105 48 285 2.0 12.0 0.00 0.00 0.00 78 1022.4
20260510083106 48 280 1.0 10.0 0.00 0.00 0.00 78 1022.4
20260510082606 48 307 1.0 7.0 0.00 0.00 0.00 78 1022.4
20260510082106 48 280 2.0 7.0 0.00 0.00 0.00 78 1022.4
20260510081605 48 293 1.0 6.0 0.00 0.00 0.00 79 1022.3
20260510081105 47 267 3.0 8.0 0.00 0.00 0.00 79 1022.4
20260510080605 47 273 1.0 3.0 0.00 0.00 0.00 79 1022.3
20260510080105 47 250 1.0 3.0 0.00 0.00 0.00 80 1022.3
20260510075605 47 238 1.0 5.0 0.00 0.00 0.00 81 1022.3
20260510075105 46 271 2.0 6.0 0.00 0.00 0.00 81 1022.3
20260510074605 46 268 2.0 9.0 0.00 0.00 0.00 81 1022.3
20260510074105 46 261 1.0 5.0 0.00 0.00 0.00 81 1022.3
20260510073605 46 283 2.0 5.0 0.00 0.00 0.00 81 1022.3
20260510072606 46 282 2.0 6.0 0.00 0.00 0.00 82 1022.3
20260510072105 46 250 1.0 5.0 0.00 0.00 0.00 82 1022.3
20260510070105 46 226 1.0 3.0 0.00 0.00 0.00 83 1022.2
20260510065605 45 288 2.0 6.0 0.00 0.00 0.00 83 1022.2
20260510065105 45 270 2.0 6.0 0.00 0.00 0.00 84 1022.2
20260510064606 46 239 1.0 6.0 0.00 0.00 0.00 85 1022.2
20260510064105 46 180 0.0 3.0 0.00 0.00 0.00 85 1022.2
20260510063605 46 293 2.0 7.0 0.00 0.00 0.00 85 1022.1
20260510062605 46 291 1.0 7.0 0.00 0.00 0.00 85 1022.0
20260510062105 46 260 1.0 6.0 0.00 0.00 0.00 85 1022.0
20260510061605 46 227 1.0 3.0 0.00 0.00 0.00 86 1021.9
20260510061105 46 237 1.0 3.0 0.00 0.00 0.00 86 1022.0
20260510060606 46 353 1.0 5.0 0.00 0.00 0.00 86 1022.0
20260510060105 46 289 1.0 3.0 0.00 0.00 0.00 86 1022.0
20260510055605 46 322 1.0 6.0 0.00 0.00 0.00 86 1022.0
20260510055106 46 233 1.0 6.0 0.00 0.00 0.00 86 1022.0
20260510054606 46 284 1.0 3.0 0.00 0.00 0.00 86 1022.0
20260510054106 46 265 1.0 5.0 0.00 0.00 0.00 87 1021.9
20260510053605 46 284 1.0 7.0 0.00 0.00 0.00 87 1021.9
20260510053106 46 272 2.0 6.0 0.00 0.00 0.00 87 1021.8
20260510052106 46 274 1.0 7.0 0.00 0.00 0.00 87 1021.9
20260510051606 46 243 2.0 9.0 0.00 0.00 0.00 87 1022.0
20260510051105 46 254 1.0 6.0 0.00 0.00 0.00 87 1022.1
20260510050606 46 286 2.0 9.0 0.00 0.00 0.00 88 1022.1
20260510045605 46 212 1.0 6.0 0.00 0.00 0.00 88 1022.0
20260510045106 46 271 2.0 8.0 0.00 0.00 0.00 88 1022.0
20260510044605 46 269 1.0 3.0 0.00 0.00 0.00 88 1022.0
20260510044105 46 312 1.0 5.0 0.00 0.00 0.00 88 1022.0
20260510043605 46 233 0.0 6.0 0.00 0.00 0.00 89 1022.0
20260510043105 46 278 0.0 3.0 0.00 0.00 0.00 89 1021.9
20260510042605 46 246 1.0 5.0 0.00 0.00 0.00 89 1021.9
20260510042106 46 249 0.0 2.0 0.00 0.00 0.00 89 1021.9
20260510041105 46 251 1.0 5.0 0.00 0.00 0.00 89 1021.9
20260510040106 46 247 1.0 6.0 0.00 0.00 0.00 89 1022.0
20260510035606 46 231 1.0 3.0 0.00 0.00 0.00 89 1022.1
20260510035106 46 267 2.0 7.0 0.00 0.00 0.00 89 1022.1
20260510034606 46 270 2.0 9.0 0.00 0.00 0.00 89 1022.1
20260510034106 46 259 1.0 6.0 0.00 0.00 0.00 89 1022.2
20260510032606 46 292 1.0 5.0 0.00 0.00 0.00 90 1022.2
20260510032106 46 277 1.0 3.0 0.00 0.00 0.00 90 1022.3
20260510031106 46 245 2.0 6.0 0.00 0.00 0.00 90 1022.3
20260510030106 46 265 1.0 6.0 0.00 0.00 0.00 90 1022.4
20260510025606 46 231 1.0 7.0 0.00 0.00 0.00 90 1022.5
20260510025106 46 215 0.0 3.0 0.00 0.00 0.00 90 1022.4
20260510024605 46 295 1.0 8.0 0.00 0.00 0.00 91 1022.4
20260510024106 46 287 2.0 6.0 0.00 0.00 0.00 90 1022.5
20260510023606 47 240 0.0 6.0 0.00 0.00 0.00 90 1022.5
20260510023106 47 248 1.0 6.0 0.00 0.00 0.00 90 1022.4
20260510022606 47 258 0.0 3.0 0.00 0.00 0.00 90 1022.5
20260510021606 47 314 1.0 5.0 0.00 0.00 0.00 90 1022.4
20260510021106 47 256 2.0 7.0 0.00 0.00 0.00 90 1022.5
20260510020606 47 253 2.0 6.0 0.00 0.00 0.00 91 1022.6
20260510020106 47 253 1.0 6.0 0.00 0.00 0.00 91 1022.6
20260510015605 47 279 2.0 7.0 0.00 0.00 0.00 91 1022.6
20260510015106 47 284 0.0 3.0 0.00 0.00 0.00 91 1022.6
20260510014606 47 298 0.0 7.0 0.00 0.00 0.00 91 1022.7
20260510014106 47 253 1.0 6.0 0.00 0.00 0.00 91 1022.6
20260510013606 47 266 3.0 8.0 0.00 0.00 0.00 91 1022.5
20260510013106 47 238 1.0 7.0 0.00 0.00 0.00 92 1022.6
20260510012106 47 286 2.0 6.0 0.00 0.00 0.00 92 1022.4
20260510011606 47 257 2.0 7.0 0.00 0.00 0.00 92 1022.2
20260510010606 47 243 0.0 8.0 0.00 0.00 0.00 92 1022.2
20260510010106 47 291 1.0 8.0 0.00 0.00 0.00 92 1022.2
20260510005606 47 226 0.0 3.0 0.00 0.00 0.00 92 1022.2
20260510005106 47 273 2.0 3.0 0.00 0.00 0.00 92 1022.2
20260510004106 47 289 1.0 5.0 0.00 0.00 0.00 92 1022.3
20260510003606 47 275 1.0 3.0 0.00 0.00 0.00 92 1022.3
20260510003106 47 233 1.0 6.0 0.00 0.00 0.00 92 1022.3
20260510002606 47 257 2.0 6.0 0.00 0.00 0.00 91 1022.4
20260510002106 47 240 1.0 6.0 0.00 0.00 0.00 91 1022.4
20260510001606 47 264 2.0 5.0 0.00 0.00 0.00 91 1022.5
20260510001106 48 249 1.0 6.0 0.00 0.00 0.00 91 1022.5
20260509235606 48 255 1.0 5.0 0.00 0.00 0.00 91 1022.4
20260509235106 48 281 1.0 5.0 0.00 0.00 0.00 91 1022.4
20260509234106 48 247 1.0 6.0 0.00 0.00 0.00 90 1022.4
20260509233607 49 280 2.0 6.0 0.00 0.00 0.00 90 1022.5
20260509232606 49 244 1.0 6.0 0.00 0.00 0.00 90 1022.5
20260509232106 49 241 1.0 3.0 0.00 0.00 0.00 89 1022.6
20260509231606 49 276 1.0 7.0 0.00 0.00 0.00 89 1022.5
20260509231106 49 221 1.0 6.0 0.00 0.00 0.00 89 1022.5
20260509230604 49 221 0.0 3.0 0.00 0.00 0.00 89 1022.4
20260509230106 49 272 3.0 12.0 0.00 0.00 0.00 88 1022.4
20260509225606 49 273 1.0 7.0 0.00 0.00 0.00 88 1022.3
20260509225104 49 274 1.0 7.0 0.00 0.00 0.00 88 1022.2
20260509224605 49 253 1.0 9.0 0.00 0.00 0.00 87 1022.2
20260509224104 49 281 1.0 7.0 0.00 0.00 0.00 87 1022.3
20260509223605 49 285 2.0 7.0 0.00 0.00 0.00 87 1022.2
20260509223105 50 249 1.0 7.0 0.00 0.00 0.00 87 1022.1
20260509222605 50 269 1.0 9.0 0.00 0.00 0.00 86 1022.1
20260509222105 50 326 1.0 7.0 0.00 0.00 0.00 87 1022.0
20260509221605 50 257 1.0 3.0 0.00 0.00 0.00 87 1022.0
20260509221105 50 241 0.0 6.0 0.00 0.00 0.00 87 1021.9
20260509220605 50 289 1.0 5.0 0.00 0.00 0.00 87 1021.9
20260509220105 50 221 0.0 2.0 0.00 0.00 0.00 87 1021.8
20260509215604 50 274 1.0 7.0 0.00 0.00 0.00 87 1021.8
20260509215105 50 287 2.0 10.0 0.00 0.00 0.00 87 1021.7
20260509214605 50 239 0.0 5.0 0.00 0.00 0.00 86 1021.7